This is the latest recevied weather packets stored in our database for station/object IK2ILW-6. If no packets are shown the sender has not sent any weather packets the latest 10 day(s).
| Time | Temp. | Humidity | Pressure | Rain* | Wind** | Luminosity | Snow |
|---|---|---|---|---|---|---|---|
| 1777426885 | 4.44° C | 96% | 1018.4 hPa | 20.07 mm | - | 0 W/m² | - |
| 1777426594 | 4.44° C | 96% | 1018.4 hPa | 19.05 mm | - | 0 W/m² | - |
| 1777426297 | 5° C | 96% | 1018.4 hPa | 18.03 mm | - | 0 W/m² | - |
| 1777426001 | 5° C | 96% | 1018.3 hPa | 17.02 mm | - | 0 W/m² | - |
| 1777425686 | 5° C | 96% | 1018.4 hPa | 12.95 mm | - | 0 W/m² | - |
| 1777425390 | 5° C | 96% | 1018.3 hPa | 13.97 mm | - | 0 W/m² | - |
| 1777425095 | 5° C | 96% | 1018.3 hPa | 12.95 mm | - | 0 W/m² | - |
| 1777424799 | 5° C | 96% | 1018.3 hPa | 11.94 mm | - | 0 W/m² | - |
| 1777424483 | 5° C | 96% | 1018.3 hPa | 9.91 mm | - | 0 W/m² | - |
| 1777424188 | 5° C | 96% | 1018.3 hPa | 8.89 mm | - | 0 W/m² | - |
| 1777423892 | 5° C | 96% | 1018.2 hPa | 7.87 mm | - | 0 W/m² | - |
| 1777423597 | 5° C | 96% | 1018.2 hPa | 6.1 mm | - | 0 W/m² | - |
| 1777423286 | 5° C | 96% | 1018.2 hPa | 5.08 mm | - | 0 W/m² | - |
| 1777422990 | 5° C | 96% | 1018.1 hPa | 4.06 mm | - | 0 W/m² | - |
| 1777422694 | 5° C | 96% | 1018.1 hPa | 3.05 mm | - | 0 W/m² | - |
| 1777422399 | 5° C | 96% | 1018.1 hPa | 2.03 mm | - | 0 W/m² | - |
| 1777422084 | 5° C | 96% | 1018.1 hPa | 2.03 mm | - | 0 W/m² | - |
| 1777421788 | 5.56° C | 96% | 1018 hPa | 1.02 mm | - | 0 W/m² | - |
| 1777421493 | 5.56° C | 96% | 1018 hPa | 1.02 mm | - | 0 W/m² | - |
| 1777421198 | 5.56° C | 96% | 1017.9 hPa | 1.02 mm | - | 0 W/m² | - |
| 1777420902 | 5.56° C | 96% | 1017.7 hPa | 1.02 mm | - | 0 W/m² | - |
| 1777420587 | 5° C | 96% | 1017.9 hPa | 2.03 mm | - | 0 W/m² | - |
| 1777420295 | 5° C | 96% | 1017.9 hPa | 1.02 mm | - | 0 W/m² | - |
| 1777419999 | 5.56° C | 96% | 1017.9 hPa | 2.03 mm | - | 0 W/m² | - |
| 1777419683 | 5° C | 96% | 1017.9 hPa | 6.1 mm | - | 0 W/m² | - |
* Rain latest hour (hover to see other rain measurements)
** Current wind speed in m/s (hover to see current wind gust speed)